Flag for U.S.A. Weather past 2 weeks in New York, New York, U.S.A.

Now
18 °F

Clear.


Feels Like: 6 °F
Forecast: 16 / 30 °F
Wind: 10 mph from Northwest

Location: New York City - Central Park

Current Time: Jan 28, 2015 at 2:37:00 AM

Latest Report: Jan 28, 2015 at 1:51 AM


Visibility: 10 mi

Pressure: 29.87 "Hg

Humidity: 52%

Dew point: 3 °F

Location of New YorkLocation

Historic Weather in New York — Graph

°F

New York temperature yesterday

Maximum temperature yesterday: 30 °F (at 3:51 PM)
Minimum temperature yesterday: 20 °F (at 11:51 PM)
Average temperature yesterday: 24 °F

Past Weeks' High & Low Weather Summary

 TemperatureHumidityPressure
High43 °F (Jan 16, 1:51 PM)93% (Jan 18, 1:51 PM)30.65 "Hg (Jan 18, 1:51 PM)
Low17 °F (Jan 13, 10:51 PM)25% (Jan 21, 3:51 PM)29.28 "Hg (Jan 24, 2:51 PM)
Average31 °F57%30.02 "Hg
* Reported Jan 13 12:51 AM — Jan 28 12:51 AM, New York, Weather by CustomWeather, © 2014

Note: Actual official high and low records may vary slightly from our data, if they occured in-between our weather recording intervals... More about our weather records

Advertising

New York weather history for previous 24 hours

 ConditionsComfort  
Time TempWeatherWind HumidityBarometerVisibility
12:51 AM
Jan 28
18 °FClear.5 mph59%29.85 "Hg10 mi
11:51 PM
Jan 27
20 °FClear.8 mph55%29.84 "Hg10 mi
10:51 PM21 °FClear.10 mph50%29.82 "Hg10 mi
9:51 PM22 °FClear.8 mph52%29.80 "Hg10 mi
8:51 PM24 °FClear.12 mph52%29.77 "Hg10 mi
7:51 PM26 °FPassing clouds.7 mph60%29.74 "Hg10 mi
6:51 PM26 °FPassing clouds.5 mph60%29.72 "Hg10 mi
5:51 PM26 °FClear.5 mph63%29.69 "Hg10 mi
4:51 PM26 °FSunny.9 mph63%29.67 "Hg10 mi
3:51 PM30 °FSunny.7 mph59%29.65 "Hg10 mi
2:51 PM29 °FPassing clouds.8 mph58%29.65 "Hg10 mi
1:51 PM28 °FPartly sunny.7 mph58%29.65 "Hg10 mi
12:51 PM26 °FBroken clouds.6 mph66%29.66 "Hg10 mi
11:51 AM27 °FMostly cloudy.10 mph69%29.67 "Hg4 mi
10:51 AM25 °FLight snow. Mostly cloudy.8 mph72%29.68 "Hg2 mi
9:51 AM23 °FOvercast.6 mph74%29.68 "Hg4 mi
8:51 AM23 °FOvercast.N/A72%29.69 "Hg3 mi
7:51 AM23 °FOvercast.7 mph65%29.68 "Hg8 mi
6:51 AM22 °FOvercast.N/A66%29.66 "Hg9 mi
5:51 AM21 °FMostly cloudy.8 mph71%29.65 "Hg5 mi
5:00 AM21 °FLight snow. Ice fog.7 mph78%29.68 "Hg1 mi
3:51 AM21 °FSnow. Ice fog.12 mph81%29.66 "Hg1 mi
2:51 AM22 °FLight snow. Overcast.8 mph82%29.67 "Hg1 mi
Weather by CustomWeather, © 2014

See weather overviewHow to use our weather pages